Location: Colonia Mina de C?rbuni
(46.1667°N, 22.7167°E)
Time: 18:16:20
(UTC+00:00)

Cosmos 44 Rocket - Pass Details

Date: 04 February 2023
Orbit: 646 x 742 km, 65.1° (Epoch: 29 March)

Event Time Altitude Azimuth Distance (km) Brightness Sun altitude
Rises 17:04:36 0° 194° (SSW) 2,947 6.8 -15.3°
Reaches altitude 10° 17:06:58 10° 187° (S) 2,047 5.9 -15.7°
Maximum altitude 17:11:18 41° 118° (ESE) 952 3.6 -16.4°
Enters shadow 17:13:00 30° 72° (ENE) 1,192 3.9 -16.7°
